COSMOS 2251 DEB, 47068

Orbit data source: Space-Track

COSMOS 2251 DEB, 47068 is space debris in LEO originally from a launch on Wed, 16 Jun 1993 UTC launched from the Plesetsk Missile And Space Complex (PKMTR). The debris from Iridium 33, an American commercial communications satellite, has been tracked extensively since its accidental collision with the defunct Russian satellite Cosmos 2251 in 2009. This event, occurring at high speed in low Earth orbit (LEO), generated thousands of pieces of space debris, significantly increasing the risk of further collisions. The Iridium 33 debris cloud has impacted space traffic management and orbital debris mitigation strategies, making it a subject of ongoing study in space situational awareness.

Loading next visibility...
Identifier
47068, 1993-036BXY
Orbit
LEO
Country
Flag of CISCIS
Related business
Manufacturer
Unknown
Mission
Spacecraft
Bus & Motor
Unknown
Mass
Unknown
Launch date (UTC)
1993-06-16 (33 years ago)
Launch vehicle
Unknown
Launch site
Plesetsk Missile And Space Complex (PKMTR)
Object type
Payload
Rocket body
Debris
Shape & HBR
Unknown shape, 0.1 m
Radar Cross Section
Medium (>0.1 m² and <1 m²)

Expand to show TLE details & history
Last TLE update: 2 days ago

TLE from 2 days ago
0 COSMOS 2251 DEB
1 47068U 93036BXY 26262.65509822  .00001793  00000-0  42268-3 0  9996
2 47068  74.0255  31.9928 0017599  50.6082 309.6636 14.54926625658404
Epoch: 2026-09-19T15:43Z
TLE epoch observation values (Epoch: 2026-09-19T15:43:20.486Z)
Latitude
-0.00001°
Longitude
157.59692°
Altitude
704.286 km
Speed
7.508 km/s
True Right ascension
02h 07m 58s
True Declination
0° 00' 00"
Sunlit
Object was in full shadow at epoch
Visualization orbit readout
Latitude
Unknown
Longitude
Unknown
Altitude
Unknown
Speed
Unknown
Apparent Right ascension
Unknown
Apparent Declination
Unknown
Sunlit
N/A
Visualization observer readout
Local Sidereal Time
12:19:26
Azimuth
Unknown
Elevation
Unknown
Doppler factor
Unknown
Orbital elements
Apogee altitude
719.677 km
Perigee altitude
694.738 km
Semi-major axis
7,085.344 km
Eccentricity
0.00176
Inclination
74.0255°
RAAN
31.9928°
Arg. of periapsis
50.6082°
True anomaly
309.50814°
Mean anomaly
309.6636°
Eccentric anomaly
309.58589°
Mean motion
3.63917 °/min
Orbital period
98.92 mins
BSTAR
0.00042268
Loading maneuver chart data...
Computing Atmospheric mass density...

Documentation

Showing up to 5 results
|